IRIDIUM 166

Last updated on Sun Jun 21 2026 00:03:14 GMT+0000 (Coordinated Universal Time)

1 43570U 18061B 26171.43461166 .00000046 00000+0 91983-5 0 9997 2 43570 86.3959 55.3901 0002138 87.2648 272.8793 14.34217963413863
UTC large
Height (km)
Speed (km/s)
/
Latitude / Longitude
Inclination (degrees)
Orbital Period (minutes)
Azimuth
Elevation
Range (km)
Doppler Factor

Next 0 passes for location: London (51.5072 / 0.1276)

No passes found over London.
IRIDIUM 166